Regional Weather Roundup
Issued by NWS

Home | Current Version | Previous Version | Graphics & Text | Print | Product List | Glossary On
Versions: 1 2 3 4 5 6 7 8 9 10 11 12 13 14 15 16 17 18 19 20 21 22 23 24 25 26 27 28 29 30 31 32 33 34 35 36 37 38 39 40 41 42 43 44 45 46 47 48 49 50
000
ASUS45 KBOI 010310
RWRID
WEATHER ROUNDUP FOR IDAHO
NATIONAL WEATHER SERVICE BOISE ID
800 PM MST SAT FEB 28 2015

NOTE: "FAIR" INDICATES FEW OR NO CLOUDS BELOW 12000 FEET
WITH NO SIGNIFICANT WEATHER AND/OR OBSTRUCTIONS TO VISIBILITY

IDZ012-014-010400-
SOUTHWEST IDAHO


CITY           SKY/WX    TMP DP  RH WIND       PRES   REMARKS
BOISE          MOCLDY    40  34  79 W3        29.91R
CALDWELL       PTCLDY    39  21  48 NW13      29.95R WCI  32
MOUNTAIN HOME  CLOUDY    41  32  69 N9        29.91R
$$

IDZ016-017-010400-
SOUTHCENTRAL IDAHO


CITY           SKY/WX    TMP DP  RH WIND       PRES   REMARKS
BURLEY         CLEAR     36  13  38 NE7       29.87R WCI  30
JEROME         CLEAR     34  23  64 NW5       29.90R WCI  30
TWIN FALLS     CLEAR     33  25  72 W9        29.89R WCI  25
$$

IDZ019>023-010400-
SOUTHEAST IDAHO


CITY           SKY/WX    TMP DP  RH WIND       PRES   REMARKS
IDAHO FALLS    CLEAR     27  11  51 N17       29.92R WCI  14
POCATELLO      CLEAR     32  10  40 NE21G28   29.90R WCI  20
REXBURG        CLEAR     26  10  50 N10       29.92R WCI  16
$$

IDZ006-010-011-018-031-032-010400-
CENTRAL IDAHO MOUNTAINS


CITY           SKY/WX    TMP DP  RH WIND       PRES   REMARKS
MCCALL         CLEAR     30  14  51 N15G23    29.93R WCI  19
HAILEY         CLOUDY    32  28  86 NW9       29.90R WCI  24
STANLEY          N/A     29  14  53 N7        29.90R WCI  22
SALMON         MOCLDY    28  12  50 N9        30.02R WCI  20
CHALLIS        CLEAR     28  11  48 NW10      29.96R WCI  19
$$

IDZ002-004-006-007-026-010400-
NORTHERN IDAHO


CITY           SKY/WX    TMP DP  RH WIND       PRES   REMARKS
LEWISTON       CLEAR     39  19  44 W8        30.12R WCI  33
LOWELL           N/A     33  22  63 CALM      30.12R
COEUR D`ALENE  CLEAR     30   9  40 NE5       30.14R WCI  25
MULLAN PASS    CLEAR     16  -2  45 SE7       30.02R WCI   6
$$


USA.gov is the U.S. government's official web portal to all federal, state and local government web resources and services.